GW4746 Weather Reports


Display with metric or nautical units.
time (UTC)temp
F
wind
direction
speed
MPH
gust
MPH
rain 1hr
in
rain 24hr
in
rain mn
in
humidity
%
barometer
mb
20260904160028 90 180 2.0 6.0 0.00 0.00 0.00 54 1015.2
20260904154533 89 255 1.0 6.0 0.00 0.00 0.00 55 1015.1
20260904153012 88 148 1.0 7.0 0.00 0.00 0.00 57 1015.0
20260904151529 87 181 3.0 7.0 0.00 0.00 0.00 58 1015.1
20260904150024 86 165 1.0 6.0 0.00 0.00 0.00 59 1015.1
20260904144531 85 160 3.0 6.0 0.00 0.00 0.00 60 1015.0
20260904143040 84 185 2.0 5.0 0.00 0.00 0.00 61 1015.0
20260904141530 83 206 3.0 7.0 0.00 0.00 0.00 61 1015.0
20260904140017 83 163 1.0 5.0 0.00 0.00 0.00 61 1014.9
20260904134526 82 164 2.0 4.0 0.00 0.00 0.00 61 1015.0
20260904133028 81 155 1.0 3.0 0.00 0.00 0.00 63 1014.7
20260904131512 80 167 1.0 4.0 0.00 0.00 0.00 64 1014.7
20260904130016 79 207 0.0 3.0 0.00 0.00 0.00 65 1014.6
20260904124522 79 152 1.0 3.0 0.00 0.00 0.00 66 1014.2
20260904123026 79 163 0.0 5.0 0.00 0.00 0.00 66 1013.8
20260904121532 79 203 1.0 5.0 0.00 0.00 0.00 66 1013.7
20260904120015 79 209 0.0 3.0 0.00 0.00 0.00 67 1013.6
20260904114538 79 188 1.0 5.0 0.00 0.00 0.00 67 1013.4
20260904113025 79 174 1.0 4.0 0.00 0.00 0.00 67 1013.3
20260904111528 79 193 1.0 3.0 0.00 0.00 0.00 67 1013.3
20260904110032 79 136 0.0 4.0 0.00 0.00 0.00 66 1013.2
20260904104535 79 170 2.0 5.0 0.00 0.00 0.00 66 1013.1
20260904103017 80 177 2.0 4.0 0.00 0.00 0.00 66 1013.0
20260904101534 80 201 1.0 4.0 0.00 0.00 0.00 66 1013.0
20260904100027 80 176 0.0 5.0 0.00 0.00 0.00 65 1012.9
20260904094532 80 233 1.0 6.0 0.00 0.00 0.00 65 1012.7
20260904093012 81 195 3.0 5.0 0.00 0.00 0.00 65 1012.6
20260904091534 81 154 2.0 5.0 0.00 0.00 0.00 64 1012.6
20260904090035 81 153 2.0 6.0 0.00 0.00 0.00 64 1012.6
20260904084530 81 189 2.0 6.0 0.00 0.00 0.00 63 1012.6
20260904083032 82 144 1.0 6.0 0.00 0.00 0.00 63 1012.7
20260904081532 82 172 1.0 5.0 0.00 0.00 0.00 63 1012.7
20260904080055 82 158 1.0 4.0 0.00 0.00 0.00 62 1012.7
20260904074528 83 133 2.0 4.0 0.00 0.00 0.00 61 1012.8
20260904073036 83 111 1.0 5.0 0.00 0.00 0.00 61 1012.8
20260904071535 83 127 2.0 5.0 0.00 0.00 0.00 60 1012.8
20260904070045 84 161 2.0 5.0 0.00 0.00 0.00 59 1012.7
20260904064537 84 150 2.0 9.0 0.00 0.00 0.00 58 1012.8
20260904063047 85 207 1.0 7.0 0.00 0.00 0.00 58 1012.8
20260904061533 85 179 1.0 6.0 0.00 0.00 0.00 57 1012.7
20260904060034 85 242 1.0 4.0 0.00 0.00 0.00 56 1012.7
20260904054531 86 165 1.0 9.0 0.00 0.00 0.00 55 1012.6
20260904053051 86 113 1.0 5.0 0.00 0.00 0.00 55 1012.5
20260904051533 86 156 2.0 6.0 0.00 0.00 0.00 55 1012.4
20260904050033 86 165 2.0 6.0 0.00 0.00 0.00 55 1012.5
20260904044514 87 165 0.0 6.0 0.00 0.00 0.00 54 1012.6
20260904043005 87 92 2.0 8.0 0.00 0.00 0.00 54 1012.5
20260904041505 87 123 1.0 5.0 0.00 0.00 0.00 53 1012.5
20260904040004 88 232 2.0 5.0 0.00 0.00 0.00 52 1012.4
20260904034504 88 181 1.0 5.0 0.00 0.00 0.00 52 1012.5
20260904033008 89 68 2.0 6.0 0.00 0.00 0.00 50 1012.3
20260904031503 89 112 1.0 5.0 0.00 0.00 0.00 49 1012.1
20260904030004 90 98 1.0 10.0 0.00 0.00 0.00 48 1011.9
20260904024504 91 99 2.0 8.0 0.00 0.00 0.00 46 1011.7
20260904023007 91 121 3.0 7.0 0.00 0.00 0.00 45 1011.5
20260904021508 92 137 2.0 8.0 0.00 0.00 0.00 43 1011.2
20260904020008 93 94 1.0 10.0 0.00 0.00 0.00 41 1011.0
20260904014512 93 200 2.0 7.0 0.00 0.00 0.00 40 1011.0
20260904013008 94 80 3.0 9.0 0.00 0.00 0.00 39 1010.7
20260904011508 95 117 4.0 7.0 0.00 0.00 0.00 38 1010.5
20260904010012 96 146 5.0 14.0 0.00 0.00 0.00 35 1010.4
20260904004508 98 116 2.0 13.0 0.00 0.00 0.00 31 1010.3
20260904003007 98 86 2.0 7.0 0.00 0.00 0.00 30 1010.2
20260904001512 99 76 2.0 5.0 0.00 0.00 0.00 30 1010.0
20260904000012 100 57 3.0 10.0 0.00 0.00 0.00 29 1009.9
20260903234511 100 89 5.0 9.0 0.00 0.00 0.00 29 1009.9
20260903233027 0 89 1.0 0.0 0.00 0.00 0.00 1009.7
20260903231517 101 131 3.0 11.0 0.00 0.00 0.00 28 1009.7
20260903230014 102 125 2.0 7.0 0.00 0.00 0.00 27 1009.7
20260903224514 102 125 3.0 10.0 0.00 0.00 0.00 26 1009.7
20260903223014 102 79 2.0 11.0 0.00 0.00 0.00 27 1009.7
20260903221515 103 87 4.0 11.0 0.00 0.00 0.00 27 1009.7
20260903220010 104 99 6.0 10.0 0.00 0.00 0.00 26 1009.7
20260903214512 106 96 2.0 5.0 0.00 0.00 0.00 23 1009.7
20260903213017 108 146 1.0 2.0 0.00 0.00 0.00 22 1009.9
20260903211520 106 119 1.0 4.0 0.00 0.00 0.00 23 1010.2
20260903210018 107 121 1.0 5.0 0.00 0.00 0.00 22 1010.4
20260903204516 106 207 2.0 4.0 0.00 0.00 0.00 22 1010.6
20260903203017 105 140 2.0 6.0 0.00 0.00 0.00 23 1010.8
20260903201520 105 97 1.0 6.0 0.00 0.00 0.00 24 1011.1
20260903200021 106 322 2.0 8.0 0.00 0.00 0.00 22 1011.2
20260903194520 105 46 2.0 10.0 0.00 0.00 0.00 24 1011.5
20260903193003 105 101 2.0 4.0 0.00 0.00 0.00 24 1011.7
20260903191503 105 105 3.0 7.0 0.00 0.00 0.00 24 1011.9
20260903190001 106 304 1.0 4.0 0.00 0.00 0.00 24 1012.1
20260903184501 105 195 1.0 4.0 0.00 0.00 0.00 25 1012.3
20260903183006 104 79 3.0 0.0 0.00 0.00 0.00 25 1012.5
20260903181511 104 39 0.0 4.0 0.00 0.00 0.00 26 1012.8
20260903180024 105 81 0.0 2.0 0.00 0.00 0.00 28 1013.0
20260903174509 103 237 1.0 4.0 0.00 0.00 0.00 27 1013.2
20260903173027 103 291 2.0 4.0 0.00 0.00 0.00 29 1013.5
20260903171508 103 294 2.0 4.0 0.00 0.00 0.00 30 1013.6
20260903170037 101 158 0.0 5.0 0.00 0.00 0.00 32 1013.7
20260903164528 101 250 2.0 5.0 0.00 0.00 0.00 31 1013.7
20260903163035 100 127 1.0 3.0 0.00 0.00 0.00 34 1013.7
20260903161530 98 142 1.0 4.0 0.00 0.00 0.00 38 1013.7